Tracking 25734 objects as of 29-May-2022
HD Live streaming from Space Station
objects crossing your sky now

DELTA 2 R/B(1)

Track DELTA 2 R/B(1) now!
10-day predictions


NORAD ID: 22109
Int'l Code: 1992-058B
Perigee: 629.8 km
Apogee: 681.2 km
Inclination: 19.8 °
Period: 97.7 minutes
Semi major axis: 7026 km
RCS: 9.826 m2 (large)
Launch date: September 9, 1992
Source: United States (US)
Launch site: AIR FORCE EASTERN TEST RANGE (AFETR)

Note: This is a ROCKET BODY
aabbcc
Your satellite tracking list
Your tracking list is empty




NASA's NSSDC Master Catalog

Two Line Element Set (TLE):
1 22109U 92058B   22148.40111308  .00001144  00000-0  11349-3 0  9994
2 22109  19.7810 164.1128 0036536  85.8357 274.6231 14.73984838576260
Source of the keplerian elements: AFSPC